Weather History for Torrington, WY

Change the Weather History Date:

Thursday, April 24, 2014

  Actual Average Record
Temperature  
Mean Temperature 48 °F 50 °F  
Max Temperature 65 °F 64 °F 90 °F (2012)
Min Temperature 30 °F 35 °F 21 °F (2013)
Degree Days  
Heating Degree Days 17 15  
Month to date heating degree days 435 460  
Since 1 July heating degree days 6401 6144  
Cooling Degree Days 0 0  
Month to date cooling degree days 0 0  
Year to date cooling degree days 0 0  
Moisture  
Dew Point 23 °F    
Average Humidity 51    
Maximum Humidity 85    
Minimum Humidity 17    
Precipitation  
Precipitation 0.00 in 0.07 in 0.37 in (2007)
Month to date precipitation 0.46 1.25  
Year to date precipitation 2.06 2.60  
Sea Level Pressure  
Sea Level Pressure 29.84 in    
Wind  
Wind Speed 12 mph (West)    
Max Wind Speed 26 mph    
Max Gust Speed 33 mph    
Visibility 10 miles    
Events      
T = Trace of Precipitation, MM = Missing Value Source: NWS Daily Summary

Daily Weather History Graph

Daily Weather History Graph

Search for Another Location

Airport:

Trip Planner

Search our weather history database for the weather conditions in past years. The results will help you decide how hot, cold, wet, or windy it might be!

Date:

Astronomy

Apr. 24, 2014 Rise Set
Actual Time 6:02 AM MDT 7:47 PM MDT
Civil Twilight 5:32 AM MDT 8:17 PM MDT
Nautical Twilight 4:56 AM MDT 8:54 PM MDT
Astronomical Twilight 4:17 AM MDT 9:33 PM MDT
Moon 3:20 AM MDT (4/24) 3:01 PM MDT (4/24)
Length of Visible Light 14h 45m
Length of Day
13h 45m
Waning Crescent, 24% of the Moon is Illuminated
Apr 24
Waning Crescent
Apr 29
New
May 6
First Quarter
May 14
Full
May 21
Last Quarter

Hourly Weather History & Observations

Time (MDT) Temp. Windchill Dew Point Humidity Pressure Visibility Wind Dir Wind Speed Gust Speed Precip Events Conditions
12:53 AM 41.0 °F 36.4 °F 34.0 °F 76% 29.86 in 10.0 mi WNW 6.9 mph - N/A   Clear
1:53 AM 37.0 °F 31.0 °F 32.0 °F 82% 29.87 in 10.0 mi WNW 8.1 mph - N/A   Clear
2:53 AM 36.0 °F 33.3 °F 30.0 °F 79% 29.89 in 10.0 mi NW 3.5 mph - N/A   Clear
3:53 AM 33.1 °F 27.7 °F 28.0 °F 82% 29.92 in 10.0 mi WNW 5.8 mph - N/A   Clear
4:53 AM 32.0 °F 26.4 °F 28.0 °F 85% 29.92 in 10.0 mi West 5.8 mph - N/A   Clear
5:53 AM 30.9 °F 24.3 °F 23.0 °F 72% 29.93 in 10.0 mi WNW 6.9 mph - N/A   Clear
6:53 AM 33.1 °F 24.9 °F 24.1 °F 70% 29.94 in 10.0 mi West 10.4 mph - N/A   Clear
7:53 AM 42.1 °F 34.2 °F 23.0 °F 47% 29.93 in 10.0 mi West 16.1 mph 23.0 mph N/A   Clear
8:53 AM 48.9 °F - 21.0 °F 33% 29.91 in 10.0 mi West 17.3 mph - N/A   Clear
9:53 AM 52.0 °F - 19.9 °F 28% 29.90 in 10.0 mi West 17.3 mph 25.3 mph N/A   Clear
10:53 AM 55.9 °F - 18.0 °F 23% 29.89 in 10.0 mi WNW 17.3 mph 26.5 mph N/A   Clear
11:53 AM 57.9 °F - 18.0 °F 21% 29.87 in 10.0 mi West 13.8 mph 20.7 mph N/A   Clear
12:53 PM 59.0 °F - 18.0 °F 20% 29.84 in 10.0 mi WNW 11.5 mph 19.6 mph N/A   Clear
1:53 PM 61.0 °F - 17.1 °F 18% 29.83 in 10.0 mi West 10.4 mph 25.3 mph N/A   Clear
2:53 PM 63.0 °F - 17.1 °F 17% 29.79 in 10.0 mi WNW 17.3 mph 25.3 mph N/A   Clear
3:53 PM 64.0 °F - 21.0 °F 19% 29.77 in 10.0 mi NW 9.2 mph - N/A   Clear
4:53 PM 64.0 °F - 21.0 °F 19% 29.77 in 10.0 mi WNW 8.1 mph - N/A   Clear
5:53 PM 63.0 °F - 21.0 °F 20% 29.77 in 10.0 mi West 3.5 mph - N/A   Clear
6:53 PM 62.1 °F - 23.0 °F 22% 29.76 in 10.0 mi West 8.1 mph - N/A   Mostly Cloudy
7:53 PM 57.9 °F - 23.0 °F 26% 29.75 in 10.0 mi West 5.8 mph - N/A   Mostly Cloudy
8:53 PM 55.9 °F - 24.1 °F 29% 29.74 in 10.0 mi West 5.8 mph - N/A   Mostly Cloudy
9:53 PM 55.9 °F - 25.0 °F 30% 29.75 in 10.0 mi SW 15.0 mph - N/A   Mostly Cloudy
10:53 PM 57.9 °F - 24.1 °F 27% 29.74 in 10.0 mi SW 23.0 mph 31.1 mph N/A   Mostly Cloudy
11:53 PM 57.0 °F - 27.0 °F 32% 29.75 in 10.0 mi WSW 24.2 mph 32.2 mph N/A   Clear